Satellite-Ground Cal/Val Region Overpasses Predictions

Prediction of Satellite NPP Overpassing Cal/Val Region: PacNW

Region Location: (Latitude: 10.00, Longitude: 139.50) to (Latitude: 22.70, Longitude: 165.60).

Table of predicted overpasses for the next 14.0 days since TLE Epoch: 11/13/2020
Interval Starting Time Starting Location Ending Time Ending Location
1 11/14/2020 02:26:26 ( 10.02, 163.08) 11/14/2020 02:30:01 ( 22.64, 160.08)
2 11/14/2020 14:58:19 ( 22.68, 160.30) 11/14/2020 15:01:54 ( 10.06, 157.30)
3 11/15/2020 02:10:07 ( 19.60, 165.59) 11/15/2020 02:10:59 ( 22.64, 164.84)
4 11/15/2020 03:48:54 ( 10.03, 142.46) 11/15/2020 03:52:26 ( 22.48, 139.50)
5 11/15/2020 14:39:17 ( 22.68, 165.06) 11/15/2020 14:42:52 ( 10.06, 162.06)
6 11/15/2020 16:20:47 ( 22.67, 139.69) 11/15/2020 16:20:59 ( 21.97, 139.51)
7 11/16/2020 03:29:51 ( 10.03, 147.22) 11/16/2020 03:33:26 ( 22.66, 144.22)
8 11/16/2020 16:01:44 ( 22.67, 144.44) 11/16/2020 16:05:19 ( 10.05, 141.44)
9 11/17/2020 03:10:49 ( 10.04, 151.98) 11/17/2020 03:14:24 ( 22.66, 148.98)
10 11/17/2020 15:42:42 ( 22.67, 149.20) 11/17/2020 15:46:17 ( 10.04, 146.20)
11 11/18/2020 02:51:46 ( 10.04, 156.73) 11/18/2020 02:55:21 ( 22.66, 153.74)
12 11/18/2020 15:23:39 ( 22.66, 153.96) 11/18/2020 15:27:14 ( 10.04, 150.96)
13 11/19/2020 02:32:44 ( 10.04, 161.49) 11/19/2020 02:36:19 ( 22.66, 158.49)
14 11/19/2020 15:04:37 ( 22.66, 158.72) 11/19/2020 15:08:12 ( 10.04, 155.72)
15 11/20/2020 02:14:31 ( 12.92, 165.59) 11/20/2020 02:17:17 ( 22.66, 163.25)
16 11/20/2020 03:55:11 ( 10.05, 140.87) 11/20/2020 03:56:51 ( 15.93, 139.51)
17 11/20/2020 14:45:34 ( 22.66, 163.48) 11/20/2020 14:49:09 ( 10.04, 160.48)
18 11/21/2020 03:36:09 ( 10.05, 145.63) 11/21/2020 03:39:44 ( 22.68, 142.63)
19 11/21/2020 14:29:40 ( 11.62, 165.60) 11/21/2020 14:30:07 ( 10.03, 165.24)
20 11/21/2020 16:08:02 ( 22.65, 142.86) 11/21/2020 16:11:37 ( 10.02, 139.86)
21 11/22/2020 03:17:07 ( 10.06, 150.39) 11/22/2020 03:20:42 ( 22.68, 147.39)
22 11/22/2020 15:48:59 ( 22.64, 147.62) 11/22/2020 15:52:34 ( 10.02, 144.62)
23 11/23/2020 02:58:03 ( 10.00, 155.16) 11/23/2020 03:01:39 ( 22.68, 152.15)
24 11/23/2020 15:29:56 ( 22.70, 152.39) 11/23/2020 15:33:32 ( 10.02, 149.37)
25 11/24/2020 02:39:01 ( 10.00, 159.92) 11/24/2020 02:42:37 ( 22.69, 156.91)
26 11/24/2020 15:10:53 ( 22.69, 157.15) 11/24/2020 15:14:29 ( 10.01, 154.13)
27 11/25/2020 02:19:58 ( 10.01, 164.68) 11/25/2020 02:23:34 ( 22.69, 161.66)
28 11/25/2020 14:51:51 ( 22.69, 161.90) 11/25/2020 14:55:27 ( 10.01, 158.89)
29 11/26/2020 03:42:26 ( 10.02, 144.06) 11/26/2020 03:46:01 ( 22.64, 141.06)
30 11/26/2020 14:34:02 ( 18.35, 165.60) 11/26/2020 14:36:24 ( 10.01, 163.65)
31 11/26/2020 16:14:18 ( 22.68, 141.29) 11/26/2020 16:16:23 ( 15.34, 139.51)
32 11/27/2020 03:23:23 ( 10.02, 148.82) 11/27/2020 03:26:58 ( 22.65, 145.82)
